Погода в Ириклинском

Россия / Оренбургская область     51°40′24″N   58°38′31″E
темп.,
°C
ветер,
м/с
пор.,
м/с
влажн.,
%
обл.,
%
осадки,
мм/ч
давл.,
гПа
погр.,
м
26 июля, пн
пн2623:00+17св33660 0.0 101742
02:00+15с34730 0.0 101849
05:00+14ссв35770 0.0 101984
08:00+16ссв34600 0.0 1019304
11:00+20с32490 0.0 10191108
14:00+23сз44355 0.0 10192319
17:00+23ссз34312 0.0 10182376
20:00+21в34415 0.0 101770
27 июля, вт
вт2723:00+17всв22485 0.0 101816
02:00+14ссв35585 0.0 101975
05:00+13св226428 0.0 101932
08:00+16ссв235697 0.0 1019232
11:00+20св334212 0.0 1018896
14:00+23ссв22309 0.0 10162551
17:00+24сз24272 0.0 10152669
20:00+22с353751 0.0 1014142
28 июля, ср
ср2823:00+19св2243100 0.0 101431
02:00+17ююв114713 0.0 101311
05:00+15зсз22524 0.0 101317
08:00+19зсз34459 0.0 1013224
11:00+23зсз55387 0.0 10111840
14:00+22ссз5645100 0.0 10111287
17:00+24ссз56331 0.0 10112213
20:00+21ссв584244 0.0 1012256
29 июля, чт
чт2923:00+16ссв35540 0.0 101487
02:00+14с22530 0.0 101424
05:00+13ссз22540 0.0 101510
08:00+17сз22450 0.0 1016224
11:00+21з23310 0.0 10151652
14:00+24зсз34255 0.0 10142404
17:00+26з452412 0.0 10132719
20:00+22юз473599 0.0 1013125
30 июля, пт
пт3023:00+19юз483758 0.0 1013114
02:00+18ююз4938100 0.0 1013133
05:00+19ююз3837100 0.0 1012183
08:00+16ююв1573100 0.4 1013195
11:00+23ююз8134054 0.4 10121146
14:00+27юз81227100 0.1 10101953
17:00+29з6933100 0.1 10082553
20:00+23з375287 0.0 1008174